Change the Weather History Date:

Sunday, March 31, 2013

  Actual Average (KILM) Record (KILM)
Temperature  
Mean Temperature 60 °F 59 °F  
Max Temperature 72 °F 70 °F 87 °F (1986)
Min Temperature 48 °F 48 °F 25 °F (1964)
Degree Days  
Heating Degree Days 5 7  
Month to date heating degree days 322  
Since 1 July heating degree days 2252  
Cooling Degree Days 0 1  
Month to date cooling degree days 16  
Year to date cooling degree days 21  
Growing Degree Days 10 (Base 50)    
Moisture  
Dew Point 51 °F    
Average Humidity 73    
Maximum Humidity 97    
Minimum Humidity 48    
Precipitation  
Precipitation 0.14 in 0.13 in 3.37 in (1886)
Month to date precipitation 4.21  
Year to date precipitation 11.59  
Snow  
Snow 0.00 in 0.00 in 1.00 in (1991)
Month to date snowfall 0.2  
Since 1 July snowfall 1.7  
Snow Depth -    
Sea Level Pressure  
Sea Level Pressure 29.96 in    
Wind  
Wind Speed 6 mph (South)    
Max Wind Speed 17 mph    
Max Gust Speed 28 mph    
Visibility 10 miles    
Events Rain    
T = Trace of Precipitation, MM = Missing Value Source: NWS Daily Summary

Daily Weather History Graph

Daily Weather History Graph

Search for Another Location

Airport or City:

Trip Planner

Search our weather history database for the weather conditions in past years. The results will help you decide how hot, cold, wet, or windy it might be!

Date:

Astronomy

Mar. 31, 2013 Rise Set
Actual Time 7:02 AM EDT 7:34 PM EDT
Civil Twilight 6:37 AM EDT 8:00 PM EDT
Nautical Twilight 6:07 AM EDT 8:30 PM EDT
Astronomical Twilight 5:37 AM EDT 9:00 PM EDT
Moon No Moon Rise 9:59 AM EDT (3/31)
Length of Visible Light 13h 23m
Length of Day
12h 32m
Waning Gibbous, 78% of the Moon is Illuminated
Mar 31
Waning Gibbous
Apr 3
Last Quarter
Apr 10
New
Apr 18
First Quarter
Apr 25
Full

Hourly Weather History & Observations

Time (EDT) Temp. Dew Point Humidity Pressure Visibility Wind Dir Wind Speed Gust Speed Precip Events Conditions
12:15 AM 49.5 °F 42.8 °F 78% 30.13 in 10.0 mi SE 3.5 mph - N/A   Clear
12:35 AM 50.0 °F 41.9 °F 74% 30.13 in 10.0 mi Calm Calm - N/A   Clear
12:55 AM 50.4 °F 41.2 °F 71% 30.12 in 10.0 mi SE 4.6 mph - N/A   Clear
1:15 AM 49.8 °F 41.7 °F 74% 30.12 in 10.0 mi SE 3.5 mph - N/A   Clear
1:35 AM 49.1 °F 41.4 °F 75% 30.11 in 10.0 mi SE 3.5 mph - N/A   Clear
1:55 AM 48.7 °F 41.2 °F 75% 30.10 in 10.0 mi SE 3.5 mph - N/A   Clear
2:15 AM 48.7 °F 41.2 °F 75% 30.10 in 10.0 mi SE 4.6 mph - N/A   Clear
2:35 AM 49.3 °F 41.7 °F 75% 30.09 in 10.0 mi SE 4.6 mph - N/A   Scattered Clouds
2:55 AM 49.5 °F 41.9 °F 75% 30.08 in 10.0 mi ESE 3.5 mph - N/A   Scattered Clouds
3:15 AM 49.1 °F 42.3 °F 77% 30.06 in 10.0 mi SE 3.5 mph - N/A   Scattered Clouds
3:35 AM 49.3 °F 42.6 °F 78% 30.06 in 10.0 mi ESE 3.5 mph - N/A   Clear
3:55 AM 48.9 °F 43.0 °F 80% 30.05 in 10.0 mi SE 3.5 mph - N/A   Clear
4:15 AM 49.5 °F 43.7 °F 81% 30.04 in 10.0 mi SE 3.5 mph - N/A   Scattered Clouds
4:35 AM 50.2 °F 44.4 °F 81% 30.04 in 10.0 mi SE 3.5 mph - N/A   Mostly Cloudy
5:15 AM 49.5 °F 45.5 °F 86% 30.03 in 10.0 mi SE 4.6 mph - N/A   Overcast
5:35 AM 50.4 °F 46.4 °F 86% 30.03 in 10.0 mi South 3.5 mph - N/A   Light Drizzle
5:55 AM 50.9 °F 46.9 °F 86% 30.02 in 10.0 mi SSE 4.6 mph - N/A   Drizzle
6:15 AM 50.9 °F 47.3 °F 87% 30.02 in 10.0 mi SE 3.5 mph - N/A   Overcast
6:35 AM 50.4 °F 47.5 °F 90% 30.02 in 10.0 mi SE 3.5 mph - N/A   Light Drizzle
6:55 AM 50.4 °F 48.0 °F 92% 30.02 in 10.0 mi Calm Calm - N/A Rain Light Rain
7:15 AM 50.4 °F 48.6 °F 94% 30.01 in 7.0 mi Calm Calm - N/A Rain Light Rain
7:35 AM 50.5 °F 49.1 °F 95% 30.01 in 10.0 mi Calm Calm - N/A   Light Drizzle
7:55 AM 51.3 °F 49.5 °F 94% 30.01 in 10.0 mi Calm Calm - 0.01 in Rain Light Rain
8:15 AM 51.1 °F 49.6 °F 95% 30.01 in 7.0 mi SE 3.5 mph - N/A Rain Rain
8:35 AM 52.2 °F 50.9 °F 95% 30.02 in 7.0 mi SSE 3.5 mph - N/A   Light Drizzle
8:55 AM 52.7 °F 51.3 °F 95% 30.01 in 7.0 mi SSE 4.6 mph - N/A   Overcast
9:15 AM 54.0 °F 52.2 °F 94% 30.00 in 10.0 mi SSE 4.6 mph - N/A   Overcast
9:35 AM 56.3 °F 52.7 °F 88% 29.99 in 10.0 mi South 6.9 mph - N/A   Overcast
10:15 AM 59.5 °F 53.6 °F 81% 29.99 in 10.0 mi SSW 6.9 mph - N/A   Overcast
10:35 AM 62.4 °F 54.1 °F 74% 29.98 in 10.0 mi SSW 6.9 mph 16.1 mph N/A   Mostly Cloudy
10:55 AM 66.2 °F 55.2 °F 68% 29.98 in 10.0 mi SW 12.7 mph 17.3 mph N/A   Scattered Clouds
11:15 AM 66.6 °F 54.3 °F 65% 29.97 in 10.0 mi SSW 11.5 mph 16.1 mph N/A   Scattered Clouds
11:35 AM 66.2 °F 53.6 °F 64% 29.98 in 10.0 mi SW 11.5 mph - N/A   Mostly Cloudy
11:55 AM 66.2 °F 52.7 °F 62% 29.97 in 10.0 mi SW 11.5 mph 19.6 mph N/A   Overcast
12:15 PM 67.8 °F 53.6 °F 60% 29.96 in 10.0 mi SW 5.8 mph - N/A   Overcast
12:35 PM 68.0 °F 52.9 °F 58% 29.96 in 10.0 mi SW 10.4 mph 23.0 mph N/A   Overcast
12:55 PM 69.3 °F 52.3 °F 55% 29.94 in 10.0 mi SW 13.8 mph 20.7 mph N/A   Overcast
1:15 PM 71.4 °F 53.2 °F 53% 29.93 in 10.0 mi SSW 13.8 mph 19.6 mph N/A   Mostly Cloudy
1:35 PM 71.6 °F 52.0 °F 50% 29.91 in 10.0 mi SSW 16.1 mph 25.3 mph N/A   Scattered Clouds
1:55 PM 71.6 °F 52.2 °F 50% 29.91 in 10.0 mi SW 17.3 mph 23.0 mph N/A   Scattered Clouds
2:15 PM 71.8 °F 52.0 °F 50% 29.90 in 10.0 mi SW 16.1 mph 27.6 mph N/A   Mostly Cloudy
2:35 PM 70.9 °F 52.5 °F 52% 29.89 in 10.0 mi SSW 16.1 mph 21.9 mph N/A   Mostly Cloudy
3:15 PM 69.8 °F 53.6 °F 56% 29.88 in 10.0 mi SW 9.2 mph 18.4 mph N/A   Overcast
3:35 PM 71.1 °F 54.0 °F 55% 29.87 in 10.0 mi SSW 11.5 mph 18.4 mph N/A   Overcast
4:15 PM 72.3 °F 52.5 °F 50% 29.86 in 10.0 mi SW 9.2 mph 18.4 mph N/A   Mostly Cloudy
4:35 PM 72.0 °F 52.7 °F 51% 29.86 in 10.0 mi SW 13.8 mph 17.3 mph N/A   Mostly Cloudy
4:55 PM 72.9 °F 52.2 °F 48% 29.86 in 10.0 mi WSW 16.1 mph 21.9 mph N/A   Scattered Clouds
5:15 PM 72.5 °F 51.8 °F 48% 29.86 in 10.0 mi SW 10.4 mph 18.4 mph N/A   Scattered Clouds
5:35 PM 72.1 °F 52.0 °F 49% 29.85 in 10.0 mi SW 11.5 mph 19.6 mph N/A   Scattered Clouds
5:55 PM 72.7 °F 52.5 °F 49% 29.85 in 10.0 mi SW 6.9 mph 10.4 mph N/A   Scattered Clouds
6:15 PM 71.6 °F 52.2 °F 50% 29.86 in 10.0 mi SW 9.2 mph 18.4 mph N/A   Mostly Cloudy
6:35 PM 71.6 °F 52.2 °F 50% 29.85 in 10.0 mi SSW 9.2 mph - N/A   Scattered Clouds
6:55 PM 71.1 °F 52.3 °F 52% 29.85 in 10.0 mi SW 6.9 mph - N/A   Scattered Clouds
7:35 PM 69.8 °F 52.9 °F 55% 29.86 in 10.0 mi South 4.6 mph - N/A   Clear
7:55 PM 68.4 °F 53.6 °F 59% 29.85 in 10.0 mi South 5.8 mph - N/A   Clear
8:15 PM 68.0 °F 54.0 °F 61% 29.85 in 10.0 mi South 4.6 mph - N/A   Clear
8:35 PM 68.0 °F 54.5 °F 62% 29.85 in 10.0 mi South 5.8 mph - N/A   Mostly Cloudy
8:55 PM 66.4 °F 55.0 °F 67% 29.86 in 10.0 mi South 9.2 mph - N/A   Overcast
9:15 PM 64.0 °F 57.4 °F 79% 29.90 in 7.0 mi WSW 8.1 mph - 0.03 in Rain Heavy Rain
9:35 PM 62.8 °F 59.9 °F 90% 29.89 in 5.0 mi South 6.9 mph 18.4 mph 0.12 in Rain Rain
9:55 PM 61.5 °F 59.9 °F 94% 29.88 in 10.0 mi South 4.6 mph - 0.12 in Rain Light Rain
10:15 PM 61.0 °F 60.1 °F 97% 29.89 in 7.0 mi South 5.8 mph - 0.01 in   Overcast
10:35 PM 61.0 °F 60.3 °F 97% 29.90 in 7.0 mi South 6.9 mph - 0.01 in Rain Light Rain
10:55 PM 60.8 °F 60.1 °F 97% 29.89 in 10.0 mi South 9.2 mph - 0.01 in   Mostly Cloudy
11:15 PM 60.1 °F 59.2 °F 97% 29.89 in 10.0 mi SSW 6.9 mph - N/A   Scattered Clouds
11:35 PM 59.7 °F 58.1 °F 94% 29.89 in 10.0 mi South 6.9 mph - N/A   Mostly Cloudy
11:55 PM 59.4 °F 58.1 °F 96% 29.89 in 10.0 mi SSW 5.8 mph - N/A   Mostly Cloudy